Ketchikan, AK

5:53 PM AKDT on April 28, 2017 (GMT -0800)
Ketchikan International

Weather History for PAKT - January, 2012

Change the Weather History Date:

Friday, January 13, 2012

  Actual Average Record
Temperature  
Mean Temperature 30 °F -  
Max Temperature 34 °F 36 °F 53 °F (1981)
Min Temperature 26 °F 25 °F 1 °F (2005)
Degree Days  
Heating Degree Days 35    
Moisture  
Dew Point 29 °F    
Average Humidity 91    
Maximum Humidity 100    
Minimum Humidity 75    
Precipitation  
Precipitation 0.62 in - - ()
Sea Level Pressure  
Sea Level Pressure 29.99 in    
Wind  
Wind Speed 3 mph (SE)    
Max Wind Speed 10 mph    
Max Gust Speed -    
Visibility 5 miles    
Events Fog , Snow    
Averages and records for this station are not official NWS values.
T = Trace of Precipitation, MM = Missing Value Source: NWS Daily Summary

Daily Weather History Graph

Daily Weather History Graph

Search for Another Location

Airport or City:

Trip Planner

Search our weather history database for the weather conditions in past years. The results will help you decide how hot, cold, wet, or windy it might be!

Date:

Astronomy

Jan. 13, 2012 Rise Set
Actual Time 8:06 AM AKST 3:44 PM AKST
Civil Twilight 7:22 AM AKST 4:28 PM AKST
Nautical Twilight 6:36 AM AKST 5:15 PM AKST
Astronomical Twilight 5:52 AM AKST 5:59 PM AKST
Moon 10:12 PM AKST (1/13) 9:24 AM AKST (1/13)
Length of Visible Light 9h 05m
Length of Day
7h 37m
Waning Gibbous, 77% of the Moon is Illuminated
Jan 13
Waning Gibbous
Jan 16
Last Quarter
Jan 22
New
Jan 30
First Quarter
Feb 7
Full

Hourly Weather History & Observations

Time (AKST) Temp. Windchill Dew Point Humidity Pressure Visibility Wind Dir Wind Speed Gust Speed Precip Events Conditions
12:15 AM 33.8 °F - 30.2 °F 87% 30.18 in 2.5 mi Calm Calm - 0.00 in Snow Light Snow
12:20 AM 33.8 °F - 32.0 °F 93% 30.18 in 3.0 mi Calm Calm - 0.00 in Snow Light Snow
12:53 AM 34.0 °F 31.0 °F 30.9 °F 89% 30.19 in 10.0 mi ESE 3.5 mph - 0.00 in   Overcast
1:53 AM 33.1 °F - 30.9 °F 92% 30.21 in 10.0 mi Calm Calm - N/A   Overcast
3:53 AM 33.1 °F 28.7 °F 28.0 °F 82% 30.19 in 10.0 mi South 4.6 mph - N/A   Mostly Cloudy
4:53 AM 32.0 °F - 28.0 °F 85% 30.18 in 10.0 mi Calm Calm - N/A   Overcast
5:23 AM 32.0 °F - 28.4 °F 87% 30.17 in 10.0 mi Calm Calm - N/A   Overcast
5:53 AM 33.1 °F 28.7 °F 26.1 °F 75% 30.17 in 10.0 mi SE 4.6 mph - N/A   Overcast
6:06 AM 33.8 °F 29.6 °F 26.6 °F 75% 30.16 in 10.0 mi SE 4.6 mph - 0.00 in Snow Light Snow
6:53 AM 33.1 °F - 27.0 °F 78% 30.15 in 10.0 mi Calm Calm - 0.00 in   Mostly Cloudy
7:53 AM 32.0 °F 24.8 °F 28.0 °F 85% 30.14 in 10.0 mi SSE 8.1 mph - N/A   Overcast
8:53 AM 33.1 °F 28.7 °F 28.0 °F 82% 30.13 in 10.0 mi SSE 4.6 mph - N/A   Overcast
9:04 AM 33.8 °F 28.6 °F 28.4 °F 81% 30.12 in 10.0 mi SSE 5.8 mph - 0.00 in Snow Light Snow
9:16 AM 33.8 °F 25.8 °F 30.2 °F 87% 30.12 in 5.0 mi SE 10.4 mph - 0.01 in Snow Light Snow
9:39 AM 32.0 °F 24.8 °F 30.2 °F 93% 30.11 in 1.0 mi SE 8.1 mph - 0.01 in Snow Light Snow
9:53 AM 32.0 °F 23.6 °F 30.0 °F 92% 30.12 in 5.0 mi SE 10.4 mph - 0.01 in Snow Light Snow
10:03 AM 32.0 °F 24.2 °F 30.2 °F 93% 30.10 in 1.5 mi SE 9.2 mph - 0.00 in Snow Light Snow
10:53 AM 33.1 °F 24.9 °F 32.0 °F 96% 30.08 in 0.5 mi SE 10.4 mph - 0.05 in Fog , Snow Snow
11:44 AM 32.0 °F 24.2 °F 32.0 °F 100% 30.03 in 0.2 mi SE 9.2 mph - 0.10 in Fog , Snow Heavy Snow
11:53 AM 32.0 °F 24.2 °F 32.0 °F 100% 30.03 in 0.2 mi SE 9.2 mph - 0.12 in Fog , Snow Heavy Snow
12:41 PM 32.0 °F 24.2 °F 32.0 °F 100% 30.00 in 0.2 mi SE 9.2 mph - 0.15 in Fog , Snow Heavy Snow
12:53 PM 33.1 °F 28.7 °F 32.0 °F 96% 30.00 in 0.2 mi South 4.6 mph - 0.21 in Fog , Snow Heavy Snow
1:03 PM 32.0 °F - 32.0 °F 100% 29.99 in 0.2 mi Calm Calm - 0.03 in Fog , Snow Heavy Snow
1:10 PM 32.0 °F 24.2 °F 32.0 °F 100% 29.99 in 0.2 mi WSW 9.2 mph - 0.08 in Fog , Snow Heavy Snow
1:25 PM 30.2 °F 24.3 °F 30.2 °F 100% 29.98 in 0.5 mi NNW 5.8 mph - 0.12 in Fog , Snow Snow
1:29 PM 30.2 °F 25.4 °F 30.2 °F 100% 29.98 in 1.2 mi NNW 4.6 mph - 0.12 in Snow Light Snow
1:30 PM 30.2 °F 25.4 °F 30.2 °F 100% 29.98 in 4.0 mi North 4.6 mph - 0.12 in Snow Light Snow
1:53 PM 32.0 °F 28.7 °F 28.9 °F 88% 29.96 in 10.0 mi North 3.5 mph - 0.12 in   Overcast
2:53 PM 32.0 °F - 28.9 °F 88% 29.94 in 10.0 mi Calm Calm - N/A   Scattered Clouds
3:53 PM 26.1 °F - 25.0 °F 96% 29.92 in 10.0 mi Calm Calm - N/A   Scattered Clouds
4:53 PM 28.0 °F 24.2 °F 25.0 °F 88% 29.91 in 10.0 mi South 3.5 mph - N/A   Mostly Cloudy
5:53 PM 30.0 °F 26.5 °F 26.1 °F 85% 29.88 in 10.0 mi SSE 3.5 mph - N/A   Overcast
6:53 PM 28.9 °F 25.2 °F 26.1 °F 89% 29.86 in 10.0 mi SSE 3.5 mph - N/A   Overcast
7:22 PM 30.2 °F - 26.6 °F 86% 29.85 in 4.0 mi Calm Calm - 0.00 in Snow Light Snow
7:53 PM 30.0 °F - 27.0 °F 88% 29.84 in 5.0 mi Calm Calm - 0.00 in Snow Light Snow
8:53 PM 28.9 °F - 28.0 °F 96% 29.83 in 5.0 mi Calm Calm - 0.01 in   Overcast
9:00 PM 28.4 °F - 26.6 °F 93% 29.82 in 10.0 mi Calm Calm - N/A   Overcast
9:53 PM 30.0 °F - 28.0 °F 92% 29.81 in 2.0 mi Calm Calm - 0.00 in Snow Light Snow
10:04 PM 30.2 °F - 28.4 °F 93% 29.80 in 1.8 mi Calm Calm - 0.00 in Snow Light Snow
10:34 PM 30.2 °F - 28.4 °F 93% 29.80 in 2.0 mi Calm Calm - 0.01 in Snow Light Snow
10:40 PM 30.2 °F - 28.4 °F 93% 29.80 in 1.8 mi Calm Calm - 0.01 in Snow Light Snow
10:53 PM 30.0 °F - 28.9 °F 96% 29.81 in 1.5 mi Calm Calm - 0.02 in Snow Light Snow
11:02 PM 30.2 °F - 28.4 °F 93% 29.80 in 2.0 mi Calm Calm - 0.00 in Snow Light Snow
11:09 PM 30.2 °F - 28.4 °F 93% 29.79 in 1.0 mi Calm Calm - 0.01 in Snow Light Snow
11:19 PM 30.2 °F - 28.4 °F 93% 29.79 in 1.0 mi Calm Calm - 0.02 in Snow Light Snow
11:28 PM 30.2 °F - 28.4 °F 93% 29.79 in 0.8 mi Calm Calm - 0.03 in Snow Light Snow
11:53 PM 30.9 °F - 28.9 °F 92% 29.80 in 0.5 mi Calm Calm - 0.08 in Fog , Snow Snow